Time,TemperatureF,DewpointF,PressureIn,WindDirection,WindDirectionDegrees,WindSpeedMPH,WindSpeedGustMPH,Humidity,HourlyPrecipIn,Conditions,Clouds,dailyrainin,SoftwareType,DateUTC
2013-01-27 00:01:00,19.1,8.2,30.39,NNW,348,0.0,1.0,62,0.00,,,0.00,Wunderground v.1.15,2013-01-27 05:01:00,
2013-01-27 00:07:00,19.1,8.2,30.39,West,266,1.0,1.0,62,0.00,,,0.00,Wunderground v.1.15,2013-01-27 05:07:00,
2013-01-27 00:10:00,19.1,8.6,30.39,North,354,2.0,2.0,63,0.00,,,0.00,Wunderground v.1.15,2013-01-27 05:10:00,
2013-01-27 00:16:00,19.2,8.7,30.39,North,350,2.0,2.0,63,0.00,,,0.00,Wunderground v.1.15,2013-01-27 05:16:00,
2013-01-27 00:20:00,19.2,8.7,30.39,North,355,0.0,2.0,63,0.00,,,0.00,Wunderground v.1.15,2013-01-27 05:20:00,
2013-01-27 00:26:00,19.1,8.6,30.39,North,355,0.0,1.0,63,0.00,,,0.00,Wunderground v.1.15,2013-01-27 05:26:00,
2013-01-27 00:31:00,19.1,8.6,30.39,NW,312,0.0,0.0,63,0.00,,,0.00,Wunderground v.1.15,2013-01-27 05:31:00,
2013-01-27 00:36:00,19.1,8.6,30.40,NW,312,1.0,1.0,63,0.00,,,0.00,Wunderground v.1.15,2013-01-27 05:36:00,
2013-01-27 00:42:00,19.1,8.6,30.40,SW,235,1.0,1.0,63,0.00,,,0.00,Wunderground v.1.15,2013-01-27 05:42:00,
2013-01-27 00:50:00,19.1,8.6,30.40,WSW,247,2.0,2.0,63,0.00,,,0.00,Wunderground v.1.15,2013-01-27 05:50:00,
2013-01-27 00:56:00,19.1,8.6,30.40,NNW,340,0.0,3.0,63,0.00,,,0.00,Wunderground v.1.15,2013-01-27 05:56:00,
2013-01-27 01:01:00,19.1,8.9,30.40,West,273,1.0,1.0,64,0.00,,,0.00,Wunderground v.1.15,2013-01-27 06:01:00,
2013-01-27 01:07:00,19.1,8.9,30.40,West,267,2.0,2.0,64,0.00,,,0.00,Wunderground v.1.15,2013-01-27 06:07:00,
2013-01-27 01:16:00,19.0,8.8,30.40,NNW,334,1.0,1.0,64,0.00,,,0.00,Wunderground v.1.15,2013-01-27 06:16:00,
2013-01-27 01:22:00,18.9,8.7,30.40,WSW,251,0.0,1.0,64,0.00,,,0.00,Wunderground v.1.15,2013-01-27 06:22:00,
2013-01-27 01:30:00,18.9,9.1,30.41,West,260,1.0,1.0,65,0.00,,,0.00,Wunderground v.1.15,2013-01-27 06:30:00,
2013-01-27 01:36:00,18.9,9.1,30.42,West,260,0.0,1.0,65,0.00,,,0.00,Wunderground v.1.15,2013-01-27 06:36:00,
2013-01-27 01:41:00,18.9,9.1,30.42,WSW,258,0.0,1.0,65,0.00,,,0.00,Wunderground v.1.15,2013-01-27 06:41:00,
2013-01-27 01:47:00,18.8,9.0,30.42,West,269,0.0,1.0,65,0.00,,,0.00,Wunderground v.1.15,2013-01-27 06:47:00,
2013-01-27 01:56:00,18.8,9.0,30.42,WSW,252,0.0,1.0,65,0.00,,,0.00,Wunderground v.1.15,2013-01-27 06:56:00,
2013-01-27 02:01:00,18.8,9.0,30.42,NNW,340,1.0,1.0,65,0.00,,,0.00,Wunderground v.1.15,2013-01-27 07:01:00,
2013-01-27 02:06:00,18.8,9.0,30.43,NNW,328,0.0,2.0,65,0.00,,,0.00,Wunderground v.1.15,2013-01-27 07:06:00,
2013-01-27 02:13:00,18.7,9.2,30.43,SSW,205,0.0,1.0,66,0.00,,,0.00,Wunderground v.1.15,2013-01-27 07:13:00,
2013-01-27 02:18:00,18.7,9.2,30.43,WSW,241,0.0,2.0,66,0.00,,,0.00,Wunderground v.1.15,2013-01-27 07:18:00,
2013-01-27 02:23:00,18.6,9.1,30.43,WSW,238,2.0,2.0,66,0.00,,,0.00,Wunderground v.1.15,2013-01-27 07:23:00,
2013-01-27 02:28:00,18.6,9.5,30.43,SW,218,1.0,3.0,67,0.00,,,0.00,Wunderground v.1.15,2013-01-27 07:28:00,
2013-01-27 02:33:00,18.6,9.5,30.43,SSW,198,2.0,4.0,67,0.00,,,0.00,Wunderground v.1.15,2013-01-27 07:33:00,
2013-01-27 02:38:00,18.6,9.5,30.43,West,259,1.0,4.0,67,0.00,,,0.00,Wunderground v.1.15,2013-01-27 07:38:00,
2013-01-27 02:46:00,18.6,9.5,30.43,NW,313,0.0,1.0,67,0.00,,,0.00,Wunderground v.1.15,2013-01-27 07:46:00,
2013-01-27 02:51:00,18.5,9.4,30.43,WSW,248,0.0,1.0,67,0.00,,,0.00,Wunderground v.1.15,2013-01-27 07:51:00,
2013-01-27 02:56:00,18.5,9.4,30.43,WSW,248,1.0,2.0,67,0.00,,,0.00,Wunderground v.1.15,2013-01-27 07:56:00,
2013-01-27 03:01:00,18.5,9.7,30.43,WSW,250,0.0,1.0,68,0.00,,,0.00,Wunderground v.1.15,2013-01-27 08:01:00,
2013-01-27 03:06:00,18.4,9.6,30.43,SW,233,1.0,3.0,68,0.00,,,0.00,Wunderground v.1.15,2013-01-27 08:06:00,
2013-01-27 03:12:00,18.4,9.9,30.42,WSW,258,1.0,1.0,69,0.00,,,0.00,Wunderground v.1.15,2013-01-27 08:12:00,
2013-01-27 03:17:00,18.4,9.9,30.42,SW,219,0.0,3.0,69,0.00,,,0.00,Wunderground v.1.15,2013-01-27 08:17:00,
2013-01-27 03:22:00,18.4,9.9,30.42,North,352,2.0,2.0,69,0.00,,,0.00,Wunderground v.1.15,2013-01-27 08:22:00,
2013-01-27 03:27:00,18.4,9.9,30.43,North,352,0.0,2.0,69,0.00,,,0.00,Wunderground v.1.15,2013-01-27 08:27:00,
2013-01-27 03:32:00,18.3,10.1,30.43,North,352,0.0,1.0,70,0.00,,,0.00,Wunderground v.1.15,2013-01-27 08:32:00,
2013-01-27 03:37:00,18.3,10.1,30.43,North,352,0.0,1.0,70,0.00,,,0.00,Wunderground v.1.15,2013-01-27 08:37:00,
2013-01-27 03:42:00,18.2,10.1,30.43,WSW,241,1.0,1.0,70,0.00,,,0.00,Wunderground v.1.15,2013-01-27 08:42:00,
2013-01-27 03:47:00,18.2,10.1,30.44,WSW,241,0.0,1.0,70,0.00,,,0.00,Wunderground v.1.15,2013-01-27 08:47:00,
2013-01-27 03:52:00,18.1,10.3,30.44,WSW,241,1.0,1.0,71,0.00,,,0.00,Wunderground v.1.15,2013-01-27 08:52:00,
2013-01-27 03:57:00,18.0,10.2,30.44,WSW,241,0.0,1.0,71,0.00,,,0.00,Wunderground v.1.15,2013-01-27 08:57:00,
2013-01-27 04:02:00,17.9,10.1,30.44,WSW,241,0.0,0.0,71,0.00,,,0.00,Wunderground v.1.15,2013-01-27 09:02:00,
2013-01-27 04:07:00,17.8,10.0,30.44,WSW,241,1.0,1.0,71,0.00,,,0.00,Wunderground v.1.15,2013-01-27 09:07:00,
2013-01-27 04:12:00,17.8,10.3,30.43,SW,234,0.0,1.0,72,0.00,,,0.00,Wunderground v.1.15,2013-01-27 09:12:00,
2013-01-27 04:17:00,17.8,10.3,30.43,SW,234,0.0,2.0,72,0.00,,,0.00,Wunderground v.1.15,2013-01-27 09:17:00,
2013-01-27 04:22:00,17.8,10.3,30.44,SW,234,0.0,1.0,72,0.00,,,0.00,Wunderground v.1.15,2013-01-27 09:22:00,
2013-01-27 04:27:00,17.7,10.5,30.43,SW,234,0.0,1.0,73,0.00,,,0.00,Wunderground v.1.15,2013-01-27 09:27:00,
2013-01-27 04:32:00,17.6,10.4,30.44,SW,234,0.0,0.0,73,0.00,,,0.00,Wunderground v.1.15,2013-01-27 09:32:00,
2013-01-27 04:37:00,17.5,10.3,30.44,SW,234,0.0,0.0,73,0.00,,,0.00,Wunderground v.1.15,2013-01-27 09:37:00,
2013-01-27 04:42:00,17.4,10.2,30.44,SW,234,0.0,0.0,73,0.00,,,0.00,Wunderground v.1.15,2013-01-27 09:42:00,
2013-01-27 04:47:00,17.3,10.4,30.44,SW,234,0.0,0.0,74,0.00,,,0.00,Wunderground v.1.15,2013-01-27 09:47:00,
2013-01-27 04:53:00,17.2,10.6,30.44,SW,234,0.0,0.0,75,0.00,,,0.00,Wunderground v.1.15,2013-01-27 09:53:00,
2013-01-27 04:58:00,17.1,10.5,30.44,SW,234,0.0,0.0,75,0.00,,,0.00,Wunderground v.1.15,2013-01-27 09:58:00,
2013-01-27 05:03:00,17.1,10.8,30.44,SW,234,0.0,1.0,76,0.00,,,0.00,Wunderground v.1.15,2013-01-27 10:03:00,
2013-01-27 05:08:00,17.2,10.9,30.44,SW,234,0.0,1.0,76,0.00,,,0.00,Wunderground v.1.15,2013-01-27 10:08:00,
2013-01-27 05:13:00,17.4,10.8,30.44,SW,234,0.0,0.0,75,0.00,,,0.00,Wunderground v.1.15,2013-01-27 10:13:00,
2013-01-27 05:18:00,17.3,11.0,30.45,SW,234,0.0,1.0,76,0.00,,,0.00,Wunderground v.1.15,2013-01-27 10:18:00,
2013-01-27 05:23:00,17.3,11.0,30.45,SW,234,0.0,0.0,76,0.00,,,0.00,Wunderground v.1.15,2013-01-27 10:23:00,
2013-01-27 05:28:00,17.3,11.0,30.45,SW,234,0.0,0.0,76,0.00,,,0.00,Wunderground v.1.15,2013-01-27 10:28:00,
2013-01-27 05:33:00,17.2,10.9,30.45,SW,234,0.0,0.0,76,0.00,,,0.00,Wunderground v.1.15,2013-01-27 10:33:00,
2013-01-27 05:38:00,17.1,11.1,30.45,SW,234,0.0,0.0,77,0.00,,,0.00,Wunderground v.1.15,2013-01-27 10:38:00,
2013-01-27 05:45:00,17.3,11.3,30.45,SW,234,0.0,1.0,77,0.00,,,0.00,Wunderground v.1.15,2013-01-27 10:45:00,
2013-01-27 05:51:00,17.5,11.5,30.46,SW,234,0.0,2.0,77,0.00,,,0.00,Wunderground v.1.15,2013-01-27 10:51:00,
2013-01-27 05:56:00,17.6,11.3,30.46,SW,234,1.0,1.0,76,0.00,,,0.00,Wunderground v.1.15,2013-01-27 10:56:00,
2013-01-27 06:01:00,17.7,11.4,30.46,SW,234,0.0,0.0,76,0.00,,,0.00,Wunderground v.1.15,2013-01-27 11:01:00,
2013-01-27 06:06:00,17.7,11.7,30.46,SW,234,0.0,0.0,77,0.00,,,0.00,Wunderground v.1.15,2013-01-27 11:06:00,
2013-01-27 06:11:00,17.6,11.3,30.46,SW,234,0.0,0.0,76,0.00,,,0.00,Wunderground v.1.15,2013-01-27 11:11:00,
2013-01-27 06:16:00,17.6,11.6,30.46,SW,234,0.0,0.0,77,0.00,,,0.00,Wunderground v.1.15,2013-01-27 11:16:00,
2013-01-27 06:21:00,17.6,11.6,30.46,SW,233,0.0,0.0,77,0.00,,,0.00,Wunderground v.1.15,2013-01-27 11:21:00,
2013-01-27 06:26:00,17.6,11.6,30.46,SW,234,0.0,1.0,77,0.00,,,0.00,Wunderground v.1.15,2013-01-27 11:26:00,
2013-01-27 06:31:00,17.7,11.7,30.46,SW,234,0.0,0.0,77,0.00,,,0.00,Wunderground v.1.15,2013-01-27 11:31:00,
2013-01-27 06:36:00,17.8,11.8,30.46,SW,234,0.0,1.0,77,0.00,,,0.00,Wunderground v.1.15,2013-01-27 11:36:00,
2013-01-27 06:41:00,17.9,11.6,30.46,SW,233,1.0,1.0,76,0.00,,,0.00,Wunderground v.1.15,2013-01-27 11:41:00,
2013-01-27 06:46:00,18.0,11.7,30.46,SW,233,0.0,1.0,76,0.00,,,0.00,Wunderground v.1.15,2013-01-27 11:46:00,
2013-01-27 06:51:00,18.1,11.8,30.46,WSW,237,0.0,0.0,76,0.00,,,0.00,Wunderground v.1.15,2013-01-27 11:51:00,
2013-01-27 06:56:00,18.2,11.9,30.46,SW,219,2.0,2.0,76,0.00,,,0.00,Wunderground v.1.15,2013-01-27 11:56:00,
2013-01-27 07:01:00,18.4,11.8,30.46,SSW,199,1.0,1.0,75,0.00,,,0.00,Wunderground v.1.15,2013-01-27 12:01:00,
2013-01-27 07:06:00,18.6,12.0,30.47,SSW,198,2.0,3.0,75,0.00,,,0.00,Wunderground v.1.15,2013-01-27 12:06:00,
2013-01-27 07:11:00,18.6,12.0,30.47,SSW,198,0.0,1.0,75,0.00,,,0.00,Wunderground v.1.15,2013-01-27 12:11:00,
2013-01-27 07:16:00,18.6,11.7,30.47,SW,224,0.0,3.0,74,0.00,,,0.00,Wunderground v.1.15,2013-01-27 12:16:00,
2013-01-27 07:21:00,18.6,12.0,30.47,SW,224,0.0,2.0,75,0.00,,,0.00,Wunderground v.1.15,2013-01-27 12:21:00,
2013-01-27 07:26:00,18.6,12.0,30.47,SW,224,0.0,2.0,75,0.00,,,0.00,Wunderground v.1.15,2013-01-27 12:26:00,
2013-01-27 07:31:00,18.6,12.0,30.48,SW,224,0.0,0.0,75,0.00,,,0.00,Wunderground v.1.15,2013-01-27 12:31:00,
2013-01-27 07:36:00,18.6,12.0,30.48,SW,224,0.0,0.0,75,0.00,,,0.00,Wunderground v.1.15,2013-01-27 12:36:00,
2013-01-27 07:41:00,18.6,12.0,30.49,SW,224,0.0,0.0,75,0.00,,,0.00,Wunderground v.1.15,2013-01-27 12:41:00,
2013-01-27 07:46:00,18.7,12.1,30.49,SW,224,0.0,1.0,75,0.00,,,0.00,Wunderground v.1.15,2013-01-27 12:46:00,
2013-01-27 07:52:00,18.8,12.2,30.49,SW,224,1.0,2.0,75,0.00,,,0.00,Wunderground v.1.15,2013-01-27 12:52:00,
2013-01-27 07:56:00,18.9,12.0,30.49,SW,233,0.0,2.0,74,0.00,,,0.00,Wunderground v.1.15,2013-01-27 12:56:00,
2013-01-27 08:01:00,19.1,12.2,30.49,SW,233,0.0,0.0,74,0.00,,,0.00,Wunderground v.1.15,2013-01-27 13:01:00,
2013-01-27 08:06:00,19.2,12.3,30.49,SW,233,0.0,1.0,74,0.00,,,0.00,Wunderground v.1.15,2013-01-27 13:06:00,
2013-01-27 08:12:00,19.5,12.3,30.49,SW,219,2.0,2.0,73,0.00,,,0.00,Wunderground v.1.15,2013-01-27 13:12:00,
2013-01-27 08:17:00,19.7,12.4,30.50,SW,219,0.0,2.0,73,0.00,,,0.00,Wunderground v.1.15,2013-01-27 13:17:00,
2013-01-27 08:21:00,20.0,12.7,30.49,SSW,202,1.0,3.0,73,0.00,,,0.00,Wunderground v.1.15,2013-01-27 13:21:00,
2013-01-27 08:27:00,20.2,12.6,30.50,SSW,202,0.0,3.0,72,0.00,,,0.00,Wunderground v.1.15,2013-01-27 13:27:00,
2013-01-27 08:32:00,20.4,12.8,30.50,SSW,202,1.0,2.0,72,0.00,,,0.00,Wunderground v.1.15,2013-01-27 13:32:00,
2013-01-27 08:37:00,20.7,12.8,30.50,SSW,202,1.0,2.0,71,0.00,,,0.00,Wunderground v.1.15,2013-01-27 13:37:00,
2013-01-27 08:42:00,20.9,13.0,30.50,SSW,202,0.0,0.0,71,0.00,,,0.00,Wunderground v.1.15,2013-01-27 13:42:00,
2013-01-27 08:47:00,21.3,13.4,30.50,SSW,202,0.0,2.0,71,0.00,,,0.00,Wunderground v.1.15,2013-01-27 13:47:00,
2013-01-27 08:52:00,21.6,13.0,30.50,SSW,204,1.0,2.0,69,0.00,,,0.00,Wunderground v.1.15,2013-01-27 13:52:00,
2013-01-27 08:57:00,21.8,13.2,30.50,SE,135,0.0,2.0,69,0.00,,,0.00,Wunderground v.1.15,2013-01-27 13:57:00,
2013-01-27 09:02:00,22.2,13.2,30.50,West,260,0.0,1.0,68,0.00,,,0.00,Wunderground v.1.15,2013-01-27 14:02:00,
2013-01-27 09:07:00,22.6,13.6,30.50,West,260,1.0,1.0,68,0.00,,,0.00,Wunderground v.1.15,2013-01-27 14:07:00,
2013-01-27 09:12:00,23.0,13.7,30.50,NNW,342,1.0,2.0,67,0.00,,,0.00,Wunderground v.1.15,2013-01-27 14:12:00,
2013-01-27 09:17:00,23.5,13.5,30.51,NNW,336,2.0,5.0,65,0.00,,,0.00,Wunderground v.1.15,2013-01-27 14:17:00,
2013-01-27 09:22:00,24.1,13.7,30.51,SSW,210,6.0,6.0,64,0.00,,,0.00,Wunderground v.1.15,2013-01-27 14:22:00,
2013-01-27 09:27:00,24.2,13.4,30.51,WNW,284,2.0,6.0,63,0.00,,,0.00,Wunderground v.1.15,2013-01-27 14:27:00,
2013-01-27 09:32:00,24.8,13.2,30.51,NNW,333,1.0,2.0,61,0.00,,,0.00,Wunderground v.1.15,2013-01-27 14:32:00,
2013-01-27 09:37:00,25.1,13.2,30.51,WSW,239,1.0,4.0,60,0.00,,,0.00,Wunderground v.1.15,2013-01-27 14:37:00,
2013-01-27 09:42:00,25.4,12.7,30.51,WNW,284,3.0,3.0,58,0.00,,,0.00,Wunderground v.1.15,2013-01-27 14:42:00,
2013-01-27 09:47:00,25.6,12.9,30.52,WNW,294,0.0,3.0,58,0.00,,,0.00,Wunderground v.1.15,2013-01-27 14:47:00,
2013-01-27 09:52:00,25.8,12.6,30.52,NNW,340,1.0,2.0,57,0.00,,,0.00,Wunderground v.1.15,2013-01-27 14:52:00,
2013-01-27 09:57:00,26.0,12.4,30.52,North,355,2.0,5.0,56,0.00,,,0.00,Wunderground v.1.15,2013-01-27 14:57:00,
2013-01-27 10:02:00,26.3,11.9,30.52,NNW,337,0.0,2.0,54,0.00,,,0.00,Wunderground v.1.15,2013-01-27 15:02:00,
2013-01-27 10:07:00,26.5,12.1,30.52,West,279,0.0,4.0,54,0.00,,,0.00,Wunderground v.1.15,2013-01-27 15:07:00,
2013-01-27 10:12:00,26.8,11.9,30.53,NNW,342,1.0,3.0,53,0.00,,,0.00,Wunderground v.1.15,2013-01-27 15:12:00,
2013-01-27 10:17:00,27.2,11.4,30.53,North,4,2.0,6.0,51,0.00,,,0.00,Wunderground v.1.15,2013-01-27 15:17:00,
2013-01-27 10:22:00,27.4,11.2,30.53,West,271,2.0,4.0,50,0.00,,,0.00,Wunderground v.1.15,2013-01-27 15:22:00,
2013-01-27 10:27:00,27.4,11.2,30.53,NW,309,0.0,4.0,50,0.00,,,0.00,Wunderground v.1.15,2013-01-27 15:27:00,
2013-01-27 10:32:00,27.8,11.1,30.53,NNE,25,2.0,4.0,49,0.00,,,0.00,Wunderground v.1.15,2013-01-27 15:32:00,
2013-01-27 10:37:00,27.8,11.1,30.53,West,270,2.0,4.0,49,0.00,,,0.00,Wunderground v.1.15,2013-01-27 15:37:00,
2013-01-27 10:43:00,28.1,10.4,30.54,West,262,2.0,4.0,47,0.00,,,0.00,Wunderground v.1.15,2013-01-27 15:43:00,
2013-01-27 10:47:00,28.3,10.6,30.54,WSW,258,1.0,4.0,47,0.00,,,0.00,Wunderground v.1.15,2013-01-27 15:47:00,
2013-01-27 10:52:00,28.7,11.0,30.54,North,7,1.0,3.0,47,0.00,,,0.00,Wunderground v.1.15,2013-01-27 15:52:00,
2013-01-27 10:57:00,28.9,10.7,30.54,WSW,247,1.0,5.0,46,0.00,,,0.00,Wunderground v.1.15,2013-01-27 15:57:00,
2013-01-27 11:02:00,29.0,10.8,30.53,WNW,303,1.0,6.0,46,0.00,,,0.00,Wunderground v.1.15,2013-01-27 16:02:00,
2013-01-27 11:07:00,29.1,10.9,30.54,NNW,328,1.0,6.0,46,0.00,,,0.00,Wunderground v.1.15,2013-01-27 16:07:00,
2013-01-27 11:12:00,29.4,11.1,30.53,WSW,258,2.0,3.0,46,0.00,,,0.00,Wunderground v.1.15,2013-01-27 16:12:00,
2013-01-27 11:17:00,29.5,10.7,30.53,North,352,2.0,7.0,45,0.00,,,0.00,Wunderground v.1.15,2013-01-27 16:17:00,
2013-01-27 11:22:00,29.5,10.7,30.53,North,11,3.0,4.0,45,0.00,,,0.00,Wunderground v.1.15,2013-01-27 16:22:00,
2013-01-27 11:28:00,29.5,10.2,30.52,NNW,337,4.0,5.0,44,0.00,,,0.00,Wunderground v.1.15,2013-01-27 16:28:00,
2013-01-27 11:33:00,29.5,10.7,30.52,West,279,0.0,3.0,45,0.00,,,0.00,Wunderground v.1.15,2013-01-27 16:33:00,
2013-01-27 11:38:00,29.9,10.1,30.51,NW,324,2.0,5.0,43,0.00,,,0.00,Wunderground v.1.15,2013-01-27 16:38:00,
2013-01-27 11:43:00,30.2,10.4,30.51,WNW,302,1.0,5.0,43,0.00,,,0.00,Wunderground v.1.15,2013-01-27 16:43:00,
2013-01-27 11:48:00,30.3,9.9,30.51,North,360,2.0,8.0,42,0.00,,,0.00,Wunderground v.1.15,2013-01-27 16:48:00,
2013-01-27 11:53:00,30.3,9.9,30.51,NNW,328,3.0,3.0,42,0.00,,,0.00,Wunderground v.1.15,2013-01-27 16:53:00,
2013-01-27 11:58:00,30.4,11.1,30.51,NW,326,4.0,10.0,44,0.00,,,0.00,Wunderground v.1.15,2013-01-27 16:58:00,
2013-01-27 12:03:00,30.6,10.2,30.50,North,350,3.0,5.0,42,0.00,,,0.00,Wunderground v.1.15,2013-01-27 17:03:00,
2013-01-27 12:10:00,30.9,9.9,30.50,North,354,2.0,5.0,41,0.00,,,0.00,Wunderground v.1.15,2013-01-27 17:10:00,
2013-01-27 12:15:00,31.2,10.2,30.50,NW,319,1.0,2.0,41,0.00,,,0.00,Wunderground v.1.15,2013-01-27 17:15:00,
2013-01-27 12:21:00,31.6,10.6,30.50,North,352,1.0,3.0,41,0.00,,,0.00,Wunderground v.1.15,2013-01-27 17:21:00,
2013-01-27 12:26:00,31.6,10.6,30.50,NNW,330,5.0,5.0,41,0.00,,,0.00,Wunderground v.1.15,2013-01-27 17:26:00,
2013-01-27 12:31:00,31.5,9.4,30.50,North,5,3.0,5.0,39,0.00,,,0.00,Wunderground v.1.15,2013-01-27 17:31:00,
2013-01-27 12:36:00,31.4,10.4,30.50,North,360,2.0,3.0,41,0.00,,,0.00,Wunderground v.1.15,2013-01-27 17:36:00,
2013-01-27 12:41:00,31.6,10.0,30.50,NNW,347,0.0,4.0,40,0.00,,,0.00,Wunderground v.1.15,2013-01-27 17:41:00,
2013-01-27 12:46:00,31.6,10.0,30.49,North,352,5.0,6.0,40,0.00,,,0.00,Wunderground v.1.15,2013-01-27 17:46:00,
2013-01-27 12:51:00,31.7,9.0,30.49,North,352,2.0,6.0,38,0.00,,,0.00,Wunderground v.1.15,2013-01-27 17:51:00,
2013-01-27 12:56:00,32.0,10.9,30.49,WNW,284,2.0,4.0,41,0.00,,,0.00,Wunderground v.1.15,2013-01-27 17:56:00,
2013-01-27 13:01:00,32.3,9.5,30.49,West,262,1.0,2.0,38,0.00,,,0.00,Wunderground v.1.15,2013-01-27 18:01:00,
2013-01-27 13:06:00,32.3,10.1,30.49,NW,315,1.0,5.0,39,0.00,,,0.00,Wunderground v.1.15,2013-01-27 18:06:00,
2013-01-27 13:11:00,32.7,9.8,30.48,SSE,154,2.0,3.0,38,0.00,,,0.00,Wunderground v.1.15,2013-01-27 18:11:00,
2013-01-27 13:16:00,33.0,10.1,30.48,NNW,327,2.0,4.0,38,0.00,,,0.00,Wunderground v.1.15,2013-01-27 18:16:00,
2013-01-27 13:21:00,33.0,10.1,30.48,North,10,0.0,3.0,38,0.00,,,0.00,Wunderground v.1.15,2013-01-27 18:21:00,
2013-01-27 13:27:00,33.2,10.3,30.48,NW,321,1.0,3.0,38,0.00,,,0.00,Wunderground v.1.15,2013-01-27 18:27:00,
2013-01-27 13:32:00,33.3,10.4,30.48,West,276,3.0,5.0,38,0.00,,,0.00,Wunderground v.1.15,2013-01-27 18:32:00,
2013-01-27 13:37:00,33.5,11.2,30.48,NNW,336,2.0,5.0,39,0.00,,,0.00,Wunderground v.1.15,2013-01-27 18:37:00,
2013-01-27 13:42:00,33.5,11.7,30.48,WNW,284,2.0,4.0,40,0.00,,,0.00,Wunderground v.1.15,2013-01-27 18:42:00,
2013-01-27 13:47:00,33.4,11.1,30.48,North,352,4.0,4.0,39,0.00,,,0.00,Wunderground v.1.15,2013-01-27 18:47:00,
2013-01-27 13:52:00,33.4,11.1,30.48,East,87,0.0,4.0,39,0.00,,,0.00,Wunderground v.1.15,2013-01-27 18:52:00,
2013-01-27 13:57:00,33.5,10.6,30.48,NNW,329,1.0,4.0,38,0.00,,,0.00,Wunderground v.1.15,2013-01-27 18:57:00,
2013-01-27 14:02:00,33.8,11.4,30.48,NW,304,2.0,2.0,39,0.00,,,0.00,Wunderground v.1.15,2013-01-27 19:02:00,
2013-01-27 14:07:00,34.1,11.1,30.48,NNW,338,1.0,5.0,38,0.00,,,0.00,Wunderground v.1.15,2013-01-27 19:07:00,
2013-01-27 14:12:00,33.8,11.4,30.47,NNW,348,0.0,2.0,39,0.00,,,0.00,Wunderground v.1.15,2013-01-27 19:12:00,
2013-01-27 14:17:00,34.0,11.6,30.47,WSW,258,1.0,3.0,39,0.00,,,0.00,Wunderground v.1.15,2013-01-27 19:17:00,
2013-01-27 14:22:00,34.4,12.0,30.47,NNE,21,1.0,3.0,39,0.00,,,0.00,Wunderground v.1.15,2013-01-27 19:22:00,
2013-01-27 14:27:00,34.4,11.4,30.48,SW,222,2.0,4.0,38,0.00,,,0.00,Wunderground v.1.15,2013-01-27 19:27:00,
2013-01-27 14:32:00,34.3,11.3,30.48,NW,318,2.0,2.0,38,0.00,,,0.00,Wunderground v.1.15,2013-01-27 19:32:00,
2013-01-27 14:37:00,34.0,11.0,30.47,North,354,0.0,5.0,38,0.00,,,0.00,Wunderground v.1.15,2013-01-27 19:37:00,
2013-01-27 14:42:00,33.6,11.2,30.48,North,357,3.0,3.0,39,0.00,,,0.00,Wunderground v.1.15,2013-01-27 19:42:00,
2013-01-27 14:47:00,33.5,11.2,30.47,North,7,1.0,5.0,39,0.00,,,0.00,Wunderground v.1.15,2013-01-27 19:47:00,
2013-01-27 14:52:00,33.6,11.2,30.47,NNW,343,1.0,2.0,39,0.00,,,0.00,Wunderground v.1.15,2013-01-27 19:52:00,
2013-01-27 14:57:00,33.6,10.7,30.47,NNW,335,0.0,2.0,38,0.00,,,0.00,Wunderground v.1.15,2013-01-27 19:57:00,
2013-01-27 15:02:00,33.7,11.3,30.47,NNW,348,7.0,7.0,39,0.00,,,0.00,Wunderground v.1.15,2013-01-27 20:02:00,
2013-01-27 15:07:00,33.7,10.7,30.47,NNW,345,2.0,7.0,38,0.00,,,0.00,Wunderground v.1.15,2013-01-27 20:07:00,
2013-01-27 15:13:00,33.7,10.7,30.47,NNE,17,0.0,2.0,38,0.00,,,0.00,Wunderground v.1.15,2013-01-27 20:13:00,
2013-01-27 15:18:00,33.8,10.8,30.47,North,355,3.0,4.0,38,0.00,,,0.00,Wunderground v.1.15,2013-01-27 20:18:00,
2013-01-27 15:23:00,33.8,10.8,30.48,NW,317,1.0,3.0,38,0.00,,,0.00,Wunderground v.1.15,2013-01-27 20:23:00,
2013-01-27 15:28:00,33.7,10.1,30.48,West,272,0.0,3.0,37,0.00,,,0.00,Wunderground v.1.15,2013-01-27 20:28:00,
2013-01-27 15:36:00,34.1,10.5,30.48,WSW,245,0.0,3.0,37,0.00,,,0.00,Wunderground v.1.15,2013-01-27 20:36:00,
2013-01-27 15:41:00,34.3,11.3,30.48,WNW,298,1.0,3.0,38,0.00,,,0.00,Wunderground v.1.15,2013-01-27 20:41:00,
2013-01-27 15:46:00,34.3,11.3,30.47,WNW,289,0.0,2.0,38,0.00,,,0.00,Wunderground v.1.15,2013-01-27 20:46:00,
2013-01-27 15:51:00,34.4,11.4,30.48,WSW,250,2.0,2.0,38,0.00,,,0.00,Wunderground v.1.15,2013-01-27 20:51:00,
2013-01-27 15:56:00,34.5,10.2,30.48,West,267,1.0,2.0,36,0.00,,,0.00,Wunderground v.1.15,2013-01-27 20:56:00,
2013-01-27 16:01:00,34.5,10.2,30.48,WNW,289,1.0,1.0,36,0.00,,,0.00,Wunderground v.1.15,2013-01-27 21:01:00,
2013-01-27 16:06:00,34.4,10.2,30.48,WNW,294,0.0,2.0,36,0.00,,,0.00,Wunderground v.1.15,2013-01-27 21:06:00,
2013-01-27 16:12:00,34.2,10.6,30.48,NW,326,1.0,1.0,37,0.00,,,0.00,Wunderground v.1.15,2013-01-27 21:12:00,
2013-01-27 16:17:00,34.0,10.4,30.48,NNW,340,0.0,4.0,37,0.00,,,0.00,Wunderground v.1.15,2013-01-27 21:17:00,
2013-01-27 16:22:00,33.8,10.2,30.48,NNW,335,1.0,1.0,37,0.00,,,0.00,Wunderground v.1.15,2013-01-27 21:22:00,
2013-01-27 16:27:00,33.7,10.1,30.48,NW,317,1.0,2.0,37,0.00,,,0.00,Wunderground v.1.15,2013-01-27 21:27:00,
2013-01-27 16:32:00,33.6,10.7,30.49,NW,316,0.0,1.0,38,0.00,,,0.00,Wunderground v.1.15,2013-01-27 21:32:00,
2013-01-27 16:37:00,33.6,10.7,30.49,NW,317,0.0,1.0,38,0.00,,,0.00,Wunderground v.1.15,2013-01-27 21:37:00,
2013-01-27 16:42:00,33.4,11.1,30.50,NW,317,0.0,1.0,39,0.00,,,0.00,Wunderground v.1.15,2013-01-27 21:42:00,
2013-01-27 16:47:00,33.3,11.0,30.50,NW,317,0.0,2.0,39,0.00,,,0.00,Wunderground v.1.15,2013-01-27 21:47:00,
2013-01-27 16:52:00,33.2,10.9,30.50,NW,317,0.0,0.0,39,0.00,,,0.00,Wunderground v.1.15,2013-01-27 21:52:00,
2013-01-27 16:57:00,33.0,10.7,30.50,NW,317,0.0,1.0,39,0.00,,,0.00,Wunderground v.1.15,2013-01-27 21:57:00,
2013-01-27 17:02:00,32.9,10.6,30.50,NW,317,0.0,1.0,39,0.00,,,0.00,Wunderground v.1.15,2013-01-27 22:02:00,
2013-01-27 17:07:00,32.7,10.4,30.50,NW,317,0.0,1.0,39,0.00,,,0.00,Wunderground v.1.15,2013-01-27 22:07:00,
2013-01-27 17:12:00,32.6,10.3,30.50,NW,317,0.0,0.0,39,0.00,,,0.00,Wunderground v.1.15,2013-01-27 22:12:00,
2013-01-27 17:17:00,32.4,10.7,30.50,NW,317,0.0,0.0,40,0.00,,,0.00,Wunderground v.1.15,2013-01-27 22:17:00,
2013-01-27 17:22:00,32.2,10.5,30.50,NW,317,0.0,0.0,40,0.00,,,0.00,Wunderground v.1.15,2013-01-27 22:22:00,
2013-01-27 17:27:00,32.0,10.4,30.50,NW,317,0.0,0.0,40,0.00,,,0.00,Wunderground v.1.15,2013-01-27 22:27:00,
2013-01-27 17:32:00,31.8,10.7,30.50,NW,317,0.0,0.0,41,0.00,,,0.00,Wunderground v.1.15,2013-01-27 22:32:00,
2013-01-27 17:37:00,31.6,10.6,30.50,NW,317,0.0,0.0,41,0.00,,,0.00,Wunderground v.1.15,2013-01-27 22:37:00,
2013-01-27 17:42:00,31.4,10.9,30.51,NW,317,0.0,0.0,42,0.00,,,0.00,Wunderground v.1.15,2013-01-27 22:42:00,
2013-01-27 17:47:00,31.1,10.6,30.51,NW,317,0.0,0.0,42,0.00,,,0.00,Wunderground v.1.15,2013-01-27 22:47:00,
2013-01-27 17:52:00,30.9,11.0,30.50,NW,317,0.0,0.0,43,0.00,,,0.00,Wunderground v.1.15,2013-01-27 22:52:00,
2013-01-27 17:57:00,30.6,11.7,30.50,NW,317,0.0,0.0,45,0.00,,,0.00,Wunderground v.1.15,2013-01-27 22:57:00,
2013-01-27 18:02:00,30.5,14.0,30.50,NW,317,0.0,0.0,50,0.00,,,0.00,Wunderground v.1.15,2013-01-27 23:02:00,
2013-01-27 18:11:00,30.2,11.4,30.50,NW,317,0.0,0.0,45,0.00,,,0.00,Wunderground v.1.15,2013-01-27 23:11:00,
2013-01-27 18:16:00,30.1,12.3,30.50,NW,317,0.0,0.0,47,0.00,,,0.00,Wunderground v.1.15,2013-01-27 23:16:00,
2013-01-27 18:21:00,30.0,11.7,30.51,NW,317,0.0,0.0,46,0.00,,,0.00,Wunderground v.1.15,2013-01-27 23:21:00,
2013-01-27 18:26:00,29.9,12.1,30.51,NW,317,0.0,0.0,47,0.00,,,0.00,Wunderground v.1.15,2013-01-27 23:26:00,
2013-01-27 18:31:00,29.9,12.1,30.51,NW,317,0.0,0.0,47,0.00,,,0.00,Wunderground v.1.15,2013-01-27 23:31:00,
2013-01-27 18:36:00,29.8,12.9,30.52,NW,317,0.0,0.0,49,0.00,,,0.00,Wunderground v.1.15,2013-01-27 23:36:00,
2013-01-27 18:41:00,29.8,12.5,30.52,NW,317,0.0,0.0,48,0.00,,,0.00,Wunderground v.1.15,2013-01-27 23:41:00,
2013-01-27 18:46:00,29.8,12.5,30.52,NW,317,0.0,0.0,48,0.00,,,0.00,Wunderground v.1.15,2013-01-27 23:46:00,
2013-01-27 18:51:00,29.9,12.1,30.52,NW,317,0.0,1.0,47,0.00,,,0.00,Wunderground v.1.15,2013-01-27 23:51:00,
2013-01-27 18:56:00,30.0,11.7,30.51,NW,317,0.0,0.0,46,0.00,,,0.00,Wunderground v.1.15,2013-01-27 23:56:00,
2013-01-27 19:01:00,30.0,11.2,30.51,NW,317,0.0,0.0,45,0.00,,,0.00,Wunderground v.1.15,2013-01-28 00:01:00,
2013-01-27 19:06:00,30.0,11.2,30.51,NW,317,0.0,0.0,45,0.00,,,0.00,Wunderground v.1.15,2013-01-28 00:06:00,
2013-01-27 19:12:00,30.0,11.2,30.51,NW,317,0.0,0.0,45,0.00,,,0.00,Wunderground v.1.15,2013-01-28 00:12:00,
2013-01-27 19:17:00,30.1,11.8,30.51,NW,317,0.0,1.0,46,0.00,,,0.00,Wunderground v.1.15,2013-01-28 00:17:00,
2013-01-27 19:22:00,30.2,11.9,30.52,NW,317,0.0,0.0,46,0.00,,,0.00,Wunderground v.1.15,2013-01-28 00:22:00,
2013-01-27 19:27:00,30.3,11.5,30.52,NW,317,0.0,0.0,45,0.00,,,0.00,Wunderground v.1.15,2013-01-28 00:27:00,
2013-01-27 19:32:00,30.4,11.6,30.51,NW,317,0.0,0.0,45,0.00,,,0.00,Wunderground v.1.15,2013-01-28 00:32:00,
2013-01-27 19:37:00,30.4,11.6,30.51,NW,317,0.0,0.0,45,0.00,,,0.00,Wunderground v.1.15,2013-01-28 00:37:00,
2013-01-27 19:42:00,30.4,12.1,30.51,NW,317,0.0,0.0,46,0.00,,,0.00,Wunderground v.1.15,2013-01-28 00:42:00,
2013-01-27 19:47:00,30.3,12.0,30.51,NW,317,0.0,0.0,46,0.00,,,0.00,Wunderground v.1.15,2013-01-28 00:47:00,
2013-01-27 19:52:00,30.3,12.0,30.51,NW,317,0.0,0.0,46,0.00,,,0.00,Wunderground v.1.15,2013-01-28 00:52:00,
2013-01-27 19:57:00,30.2,11.9,30.51,NW,317,0.0,0.0,46,0.00,,,0.00,Wunderground v.1.15,2013-01-28 00:57:00,
2013-01-27 20:02:00,30.1,12.3,30.51,NW,317,0.0,0.0,47,0.00,,,0.00,Wunderground v.1.15,2013-01-28 01:02:00,
2013-01-27 20:07:00,29.9,12.1,30.50,NW,317,0.0,0.0,47,0.00,,,0.00,Wunderground v.1.15,2013-01-28 01:07:00,
2013-01-27 20:12:00,29.7,12.4,30.50,NW,317,0.0,0.0,48,0.00,,,0.00,Wunderground v.1.15,2013-01-28 01:12:00,
2013-01-27 20:17:00,29.5,12.7,30.50,NW,317,0.0,0.0,49,0.00,,,0.00,Wunderground v.1.15,2013-01-28 01:17:00,
2013-01-27 20:22:00,29.4,12.6,30.50,NW,317,0.0,0.0,49,0.00,,,0.00,Wunderground v.1.15,2013-01-28 01:22:00,
2013-01-27 20:27:00,29.3,12.5,30.50,NW,317,0.0,0.0,49,0.00,,,0.00,Wunderground v.1.15,2013-01-28 01:27:00,
2013-01-27 20:32:00,29.2,12.8,30.51,NW,317,0.0,2.0,50,0.00,,,0.00,Wunderground v.1.15,2013-01-28 01:32:00,
2013-01-27 20:37:00,29.3,12.9,30.51,NW,317,0.0,2.0,50,0.00,,,0.00,Wunderground v.1.15,2013-01-28 01:37:00,
2013-01-27 20:42:00,29.2,12.8,30.51,NW,317,0.0,0.0,50,0.00,,,0.00,Wunderground v.1.15,2013-01-28 01:42:00,
2013-01-27 20:48:00,29.0,12.7,30.51,NW,317,0.0,0.0,50,0.00,,,0.00,Wunderground v.1.15,2013-01-28 01:48:00,
2013-01-27 20:53:00,28.9,12.6,30.51,NW,317,0.0,0.0,50,0.00,,,0.00,Wunderground v.1.15,2013-01-28 01:53:00,
2013-01-27 20:58:00,28.8,12.9,30.51,NW,317,0.0,0.0,51,0.00,,,0.00,Wunderground v.1.15,2013-01-28 01:58:00,
2013-01-27 21:03:00,28.7,12.8,30.51,NW,317,0.0,0.0,51,0.00,,,0.00,Wunderground v.1.15,2013-01-28 02:03:00,
2013-01-27 21:08:00,28.7,12.8,30.51,NW,317,0.0,1.0,51,0.00,,,0.00,Wunderground v.1.15,2013-01-28 02:08:00,
2013-01-27 21:13:00,28.7,12.8,30.51,NW,317,1.0,1.0,51,0.00,,,0.00,Wunderground v.1.15,2013-01-28 02:13:00,
2013-01-27 21:18:00,28.8,13.4,30.52,NW,317,1.0,1.0,52,0.00,,,0.00,Wunderground v.1.15,2013-01-28 02:18:00,
2013-01-27 21:23:00,28.9,13.5,30.52,NW,317,0.0,1.0,52,0.00,,,0.00,Wunderground v.1.15,2013-01-28 02:23:00,
2013-01-27 21:28:00,28.8,13.4,30.52,NW,317,0.0,1.0,52,0.00,,,0.00,Wunderground v.1.15,2013-01-28 02:28:00,
2013-01-27 21:33:00,28.8,13.4,30.52,NW,317,0.0,0.0,52,0.00,,,0.00,Wunderground v.1.15,2013-01-28 02:33:00,
2013-01-27 21:38:00,28.7,13.3,30.51,NW,317,0.0,0.0,52,0.00,,,0.00,Wunderground v.1.15,2013-01-28 02:38:00,
2013-01-27 21:46:00,28.5,13.1,30.51,NW,317,0.0,0.0,52,0.00,,,0.00,Wunderground v.1.15,2013-01-28 02:46:00,
2013-01-27 21:51:00,28.3,13.3,30.51,NW,317,0.0,0.0,53,0.00,,,0.00,Wunderground v.1.15,2013-01-28 02:51:00,
2013-01-27 21:56:00,28.2,13.2,30.51,NW,317,0.0,0.0,53,0.00,,,0.00,Wunderground v.1.15,2013-01-28 02:56:00,
2013-01-27 22:01:00,28.0,13.5,30.51,NW,317,0.0,0.0,54,0.00,,,0.00,Wunderground v.1.15,2013-01-28 03:01:00,
2013-01-27 22:06:00,27.9,13.4,30.50,NW,317,0.0,0.0,54,0.00,,,0.00,Wunderground v.1.15,2013-01-28 03:06:00,
2013-01-27 22:11:00,27.8,14.1,30.51,NW,317,0.0,0.0,56,0.00,,,0.00,Wunderground v.1.15,2013-01-28 03:11:00,
2013-01-27 22:16:00,27.7,13.6,30.51,NW,317,0.0,0.0,55,0.00,,,0.00,Wunderground v.1.15,2013-01-28 03:16:00,
2013-01-27 22:21:00,27.5,13.8,30.50,NW,317,0.0,0.0,56,0.00,,,0.00,Wunderground v.1.15,2013-01-28 03:21:00,
2013-01-27 22:26:00,27.4,14.1,30.50,NW,317,0.0,0.0,57,0.00,,,0.00,Wunderground v.1.15,2013-01-28 03:26:00,
2013-01-27 22:31:00,27.2,13.6,30.50,NW,317,0.0,0.0,56,0.00,,,0.00,Wunderground v.1.15,2013-01-28 03:31:00,
2013-01-27 22:36:00,27.0,13.8,30.50,NW,317,0.0,0.0,57,0.00,,,0.00,Wunderground v.1.15,2013-01-28 03:36:00,
2013-01-27 22:41:00,26.9,14.1,30.50,NW,317,0.0,0.0,58,0.00,,,0.00,Wunderground v.1.15,2013-01-28 03:41:00,
2013-01-27 22:46:00,26.7,14.3,30.50,NW,317,0.0,0.0,59,0.00,,,0.00,Wunderground v.1.15,2013-01-28 03:46:00,
2013-01-27 22:51:00,26.6,14.9,30.49,NW,317,0.0,0.0,61,0.00,,,0.00,Wunderground v.1.15,2013-01-28 03:51:00,
2013-01-27 22:56:00,26.5,14.5,30.49,NW,317,0.0,0.0,60,0.00,,,0.00,Wunderground v.1.15,2013-01-28 03:56:00,
2013-01-27 23:01:00,26.4,14.0,30.49,NW,317,0.0,0.0,59,0.00,,,0.00,Wunderground v.1.15,2013-01-28 04:01:00,
2013-01-27 23:06:00,26.2,14.2,30.50,NW,317,0.0,0.0,60,0.00,,,0.00,Wunderground v.1.15,2013-01-28 04:06:00,
2013-01-27 23:12:00,26.1,14.5,30.50,NW,317,0.0,0.0,61,0.00,,,0.00,Wunderground v.1.15,2013-01-28 04:12:00,
2013-01-27 23:17:00,25.9,14.7,30.49,NW,317,0.0,0.0,62,0.00,,,0.00,Wunderground v.1.15,2013-01-28 04:17:00,
2013-01-27 23:22:00,25.8,14.6,30.50,NW,317,0.0,0.0,62,0.00,,,0.00,Wunderground v.1.15,2013-01-28 04:22:00,
2013-01-27 23:27:00,25.6,14.0,30.50,NW,317,0.0,0.0,61,0.00,,,0.00,Wunderground v.1.15,2013-01-28 04:27:00,
2013-01-27 23:32:00,25.4,14.2,30.50,NW,317,0.0,0.0,62,0.00,,,0.00,Wunderground v.1.15,2013-01-28 04:32:00,
2013-01-27 23:37:00,25.2,14.7,30.50,NW,317,0.0,0.0,64,0.00,,,0.00,Wunderground v.1.15,2013-01-28 04:37:00,
2013-01-27 23:42:00,25.1,14.6,30.50,NW,317,0.0,0.0,64,0.00,,,0.00,Wunderground v.1.15,2013-01-28 04:42:00,
2013-01-27 23:47:00,24.9,14.4,30.50,NW,317,0.0,0.0,64,0.00,,,0.00,Wunderground v.1.15,2013-01-28 04:47:00,
2013-01-27 23:52:00,24.8,14.7,30.50,NW,317,0.0,0.0,65,0.00,,,0.00,Wunderground v.1.15,2013-01-28 04:52:00,
2013-01-27 23:57:00,24.8,14.7,30.50,NW,317,0.0,0.0,65,0.00,,,0.00,Wunderground v.1.15,2013-01-28 04:57:00,